"Time","Value","Approval","myLocation"
"2023-09-13 20:00",25.362,"Working","OW388"
"2023-09-13 21:00",25.3850373052447,"Working","OW388"
"2023-09-13 22:00",25.4100746104894,"Working","OW388"
"2023-09-13 23:00",25.348111915734,"Working","OW388"
"2023-09-14 00:00",25.2941492209787,"Working","OW388"
"2023-09-14 01:00",25.2421865262234,"Working","OW388"
"2023-09-14 02:00",25.2042238314681,"Working","OW388"
"2023-09-14 03:00",25.1802611367127,"Working","OW388"
"2023-09-14 04:00",25.1562984419574,"Working","OW388"
"2023-09-14 05:00",25.1373357472021,"Working","OW388"
"2023-09-14 06:00",25.1203730524468,"Working","OW388"
"2023-09-14 07:00",25.1034103576915,"Working","OW388"
"2023-09-14 08:00",25.0854476629361,"Working","OW388"
"2023-09-14 09:00",25.0664849681808,"Working","OW388"
"2023-09-14 10:00",25.1055222734255,"Working","OW388"
"2023-09-14 11:00",25.2785595786702,"Working","OW388"
"2023-09-14 12:00",25.7665968839149,"Working","OW388"
"2023-09-14 13:00",25.9406341891595,"Working","OW388"
"2023-09-14 14:00",25.6906714944042,"Working","OW388"
"2023-09-14 15:00",25.4767087996489,"Working","OW388"
"2023-09-14 16:00",25.3387461048936,"Working","OW388"
"2023-09-14 17:00",25.2767834101382,"Working","OW388"
"2023-09-14 18:00",25.2098207153829,"Working","OW388"
"2023-09-14 19:00",25.1578580206276,"Working","OW388"
"2023-09-14 20:00",25.4598953258723,"Working","OW388"
"2023-09-14 21:00",25.923932631117,"Working","OW388"
"2023-09-14 22:00",25.8759699363616,"Working","OW388"
"2023-09-14 23:00",25.6170072416063,"Working","OW388"
"2023-09-15 00:00",25.425044546851,"Working","OW388"
"2023-09-15 01:00",25.3070818520957,"Working","OW388"
"2023-09-15 02:00",25.2371191573404,"Working","OW388"
"2023-09-15 03:00",25.184156462585,"Working","OW388"
"2023-09-15 04:00",25.1511937678297,"Working","OW388"
"2023-09-15 05:00",25.1312310730744,"Working","OW388"
"2023-09-15 06:00",25.1242683783191,"Working","OW388"
"2023-09-15 07:00",25.1053056835637,"Working","OW388"
"2023-09-15 08:00",25.0833429888084,"Working","OW388"
"2023-09-15 09:00",25.0623802940531,"Working","OW388"
"2023-09-15 10:00",25.1334175992978,"Working","OW388"
"2023-09-15 11:00",25.2684549045425,"Working","OW388"
"2023-09-15 12:00",25.3644922097871,"Working","OW388"
"2023-09-15 13:00",25.3325295150318,"Working","OW388"
"2023-09-15 14:00",25.3275668202765,"Working","OW388"
"2023-09-15 15:00",25.4486041255212,"Working","OW388"
"2023-09-15 16:00",25.5136414307659,"Working","OW388"
"2023-09-15 17:00",25.4136787360105,"Working","OW388"
"2023-09-15 18:00",25.3407160412552,"Working","OW388"
"2023-09-15 19:00",25.3307533464999,"Working","OW388"
"2023-09-15 20:00",25.2877906517446,"Working","OW388"
"2023-09-15 21:00",25.2638279569892,"Working","OW388"
"2023-09-15 22:00",25.2458652622339,"Working","OW388"
"2023-09-15 23:00",25.5259025674786,"Working","OW388"
"2023-09-16 00:00",25.4499398727233,"Working","OW388"
"2023-09-16 01:00",25.336977177968,"Working","OW388"
"2023-09-16 02:00",25.2530144832126,"Working","OW388"
"2023-09-16 03:00",25.1990517884573,"Working","OW388"
"2023-09-16 04:00",25.165089093702,"Working","OW388"
"2023-09-16 05:00",25.1531263989467,"Working","OW388"
"2023-09-16 06:00",25.1251637041914,"Working","OW388"
"2023-09-16 07:00",25.102201009436,"Working","OW388"
"2023-09-16 08:00",25.0822383146807,"Working","OW388"
"2023-09-16 09:00",25.0652756199254,"Working","OW388"
"2023-09-16 10:00",25.0493129251701,"Working","OW388"
"2023-09-16 11:00",25.2223502304147,"Working","OW388"
"2023-09-16 12:00",25.7163875356594,"Working","OW388"
"2023-09-16 13:00",25.9044248409041,"Working","OW388"
"2023-09-16 14:00",25.6594621461488,"Working","OW388"
"2023-09-16 15:00",25.4484994513935,"Working","OW388"
"2023-09-16 16:00",25.3085367566381,"Working","OW388"
"2023-09-16 17:00",25.2415740618828,"Working","OW388"
"2023-09-16 18:00",25.1936113671275,"Working","OW388"
"2023-09-16 19:00",25.1566486723722,"Working","OW388"
"2023-09-16 20:00",25.1266859776169,"Working","OW388"
"2023-09-16 21:00",25.1147232828615,"Working","OW388"
"2023-09-16 22:00",25.1087605881062,"Working","OW388"
"2023-09-16 23:00",25.0887978933509,"Working","OW388"
"2023-09-17 00:00",25.0708351985956,"Working","OW388"
"2023-09-17 01:00",25.0548725038402,"Working","OW388"
"2023-09-17 02:00",25.0519098090849,"Working","OW388"
"2023-09-17 03:00",25.0639471143296,"Working","OW388"
"2023-09-17 04:00",25.3129844195743,"Working","OW388"
"2023-09-17 05:00",25.267021724819,"Working","OW388"
"2023-09-17 06:00",25.1900590300636,"Working","OW388"
"2023-09-17 07:00",25.1350963353083,"Working","OW388"
"2023-09-17 08:00",25.096133640553,"Working","OW388"
"2023-09-17 09:00",25.0671709457977,"Working","OW388"
"2023-09-17 10:00",25.1872082510424,"Working","OW388"
"2023-09-17 11:00",25.331245556287,"Working","OW388"
"2023-09-17 12:00",25.4182828615317,"Working","OW388"
"2023-09-17 13:00",25.3753201667764,"Working","OW388"
"2023-09-17 14:00",25.3573574720211,"Working","OW388"
"2023-09-17 15:00",25.4713947772657,"Working","OW388"
"2023-09-17 16:00",25.5384320825104,"Working","OW388"
"2023-09-17 17:00",25.4564693877551,"Working","OW388"
"2023-09-17 18:00",25.4835066929998,"Working","OW388"
"2023-09-17 19:00",25.5105439982445,"Working","OW388"
"2023-09-17 20:00",25.4735813034891,"Working","OW388"
"2023-09-17 21:00",25.4146186087338,"Working","OW388"
"2023-09-17 22:00",25.3656559139785,"Working","OW388"
"2023-09-17 23:00",25.3426932192232,"Working","OW388"
"2023-09-18 00:00",25.3037305244679,"Working","OW388"
"2023-09-18 01:00",25.2707678297125,"Working","OW388"
"2023-09-18 02:00",25.2498051349572,"Working","OW388"
"2023-09-18 03:00",25.2328424402019,"Working","OW388"
"2023-09-18 04:00",25.2178797454466,"Working","OW388"
"2023-09-18 05:00",25.2029170506912,"Working","OW388"
"2023-09-18 06:00",25.1899543559359,"Working","OW388"
"2023-09-18 07:00",25.1799916611806,"Working","OW388"
"2023-09-18 08:00",25.1700289664253,"Working","OW388"
"2023-09-18 09:00",25.16006627167,"Working","OW388"
"2023-09-18 10:00",25.2551035769146,"Working","OW388"
"2023-09-18 11:00",25.6701408821593,"Working","OW388"
"2023-09-18 12:00",26.284178187404,"Working","OW388"
"2023-09-18 13:00",26.4502154926487,"Working","OW388"
"2023-09-18 14:00",26.1812527978934,"Working","OW388"
"2023-09-18 15:00",26.084290103138,"Working","OW388"
"2023-09-18 16:00",25.9993274083827,"Working","OW388"
"2023-09-18 17:00",25.8103647136274,"Working","OW388"
"2023-09-18 18:00",25.6994020188721,"Working","OW388"
"2023-09-18 19:00",25.8444393241167,"Working","OW388"
"2023-09-18 20:00",25.7994766293614,"Working","OW388"
"2023-09-18 21:00",25.6785139346061,"Working","OW388"
"2023-09-18 22:00",25.6065512398508,"Working","OW388"
"2023-09-18 23:00",25.5395885450955,"Working","OW388"
"2023-09-19 00:00",25.5056258503401,"Working","OW388"
"2023-09-19 01:00",25.4676631555848,"Working","OW388"
"2023-09-19 02:00",25.4347004608295,"Working","OW388"
"2023-09-19 03:00",25.4017377660742,"Working","OW388"
"2023-09-19 04:00",25.3797750713188,"Working","OW388"
"2023-09-19 05:00",25.3628123765635,"Working","OW388"
"2023-09-19 06:00",25.3488496818082,"Working","OW388"
"2023-09-19 07:00",25.3348869870529,"Working","OW388"
"2023-09-19 08:00",25.3189242922976,"Working","OW388"
"2023-09-19 09:00",25.3019615975422,"Working","OW388"
"2023-09-19 10:00",25.3939989027869,"Working","OW388"
"2023-09-19 11:00",25.5380362080316,"Working","OW388"
"2023-09-19 12:00",25.5270735132763,"Working","OW388"
"2023-09-19 13:00",25.445110818521,"Working","OW388"
"2023-09-19 14:00",25.3891481237656,"Working","OW388"
"2023-09-19 15:00",25.3491854290103,"Working","OW388"
"2023-09-19 16:00",25.376222734255,"Working","OW388"
"2023-09-19 17:00",25.5882600394997,"Working","OW388"
"2023-09-19 18:00",25.5182973447444,"Working","OW388"
"2023-09-19 19:00",25.433334649989,"Working","OW388"
"2023-09-19 20:00",25.3693719552337,"Working","OW388"
"2023-09-19 21:00",25.3304092604784,"Working","OW388"
"2023-09-19 22:00",25.3154465657231,"Working","OW388"
"2023-09-19 23:00",25.3054838709677,"Working","OW388"
"2023-09-20 00:00",25.2815211762124,"Working","OW388"
"2023-09-20 01:00",25.2625584814571,"Working","OW388"
"2023-09-20 02:00",25.2515957867018,"Working","OW388"
"2023-09-20 03:00",25.2376330919465,"Working","OW388"
"2023-09-20 04:00",25.2306703971911,"Working","OW388"
"2023-09-20 05:00",25.2327077024358,"Working","OW388"
"2023-09-20 06:00",25.2297450076805,"Working","OW388"
"2023-09-20 07:00",25.2197823129252,"Working","OW388"
"2023-09-20 08:00",25.2088196181698,"Working","OW388"
"2023-09-20 09:00",25.1948569234145,"Working","OW388"
"2023-09-20 10:00",25.3388942286592,"Working","OW388"
"2023-09-20 11:00",25.7429315339039,"Working","OW388"
"2023-09-20 12:00",26.3459688391486,"Working","OW388"
"2023-09-20 13:00",26.4920061443932,"Working","OW388"
"2023-09-20 14:00",26.2180434496379,"Working","OW388"
"2023-09-20 15:00",26.1150807548826,"Working","OW388"
"2023-09-20 16:00",26.0421180601273,"Working","OW388"
"2023-09-20 17:00",25.856155365372,"Working","OW388"
"2023-09-20 18:00",25.7161926706166,"Working","OW388"
"2023-09-20 19:00",25.6172299758613,"Working","OW388"
"2023-09-20 20:00",25.567267281106,"Working","OW388"
"2023-09-20 21:00",25.8013045863507,"Working","OW388"
"2023-09-20 22:00",25.9253418915953,"Working","OW388"
"2023-09-20 23:00",25.76937919684,"Working","OW388"
"2023-09-21 00:00",25.6334165020847,"Working","OW388"
"2023-09-21 01:00",25.5564538073294,"Working","OW388"
"2023-09-21 02:00",25.4874911125741,"Working","OW388"
"2023-09-21 03:00",25.4405284178187,"Working","OW388"
"2023-09-21 04:00",25.4105657230634,"Working","OW388"
"2023-09-21 05:00",25.3896030283081,"Working","OW388"
"2023-09-21 06:00",25.3766403335528,"Working","OW388"
"2023-09-21 07:00",25.3676776387975,"Working","OW388"
"2023-09-21 08:00",25.3417149440421,"Working","OW388"
"2023-09-21 09:00",25.3177522492868,"Working","OW388"
"2023-09-21 10:00",25.2957895545315,"Working","OW388"
"2023-09-21 11:00",25.2748268597762,"Working","OW388"
"2023-09-21 12:00",25.2548641650208,"Working","OW388"
"2023-09-21 13:00",25.2379014702655,"Working","OW388"
"2023-09-21 14:00",25.2249387755102,"Working","OW388"
"2023-09-21 15:00",25.2159760807549,"Working","OW388"
"2023-09-21 16:00",25.2120133859996,"Working","OW388"
"2023-09-21 17:00",25.2070506912442,"Working","OW388"
"2023-09-21 18:00",25.2020879964889,"Working","OW388"
"2023-09-21 19:00",25.1891253017336,"Working","OW388"
"2023-09-21 20:00",25.2031626069783,"Working","OW388"
"2023-09-21 21:00",25.433199912223,"Working","OW388"
"2023-09-21 22:00",25.3752372174676,"Working","OW388"
"2023-09-21 23:00",25.2992745227123,"Working","OW388"
"2023-09-22 00:00",25.263311827957,"Working","OW388"
"2023-09-22 01:00",25.2253491332017,"Working","OW388"
"2023-09-22 02:00",25.1983864384463,"Working","OW388"
"2023-09-22 03:00",25.185423743691,"Working","OW388"
"2023-09-22 04:00",25.1834610489357,"Working","OW388"
"2023-09-22 05:00",25.1754983541804,"Working","OW388"
"2023-09-22 06:00",25.1575356594251,"Working","OW388"
"2023-09-22 07:00",25.1425729646697,"Working","OW388"
"2023-09-22 08:00",25.1276102699144,"Working","OW388"
"2023-09-22 09:00",25.1156475751591,"Working","OW388"
"2023-09-22 10:00",25.2096848804038,"Working","OW388"
"2023-09-22 11:00",25.6057221856485,"Working","OW388"
"2023-09-22 12:00",26.2177594908931,"Working","OW388"
"2023-09-22 13:00",26.3807967961378,"Working","OW388"
"2023-09-22 14:00",26.1198341013825,"Working","OW388"
"2023-09-22 15:00",26.0368714066272,"Working","OW388"
"2023-09-22 16:00",25.9849087118718,"Working","OW388"
"2023-09-22 17:00",25.7949460171165,"Working","OW388"
"2023-09-22 18:00",25.6769833223612,"Working","OW388"
"2023-09-22 19:00",25.7000206276059,"Working","OW388"
"2023-09-22 20:00",25.9780579328506,"Working","OW388"
"2023-09-22 21:00",26.0000952380952,"Working","OW388"
"2023-09-22 22:00",25.8311325433399,"Working","OW388"
"2023-09-22 23:00",25.6931698485846,"Working","OW388"
"2023-09-23 00:00",25.5942071538293,"Working","OW388"
"2023-09-23 01:00",25.552244459074,"Working","OW388"
"2023-09-23 02:00",25.4982817643186,"Working","OW388"
"2023-09-23 03:00",25.4753190695633,"Working","OW388"
"2023-09-23 04:00",25.448356374808,"Working","OW388"
"2023-09-23 05:00",25.4283936800527,"Working","OW388"
"2023-09-23 06:00",25.3954309852973,"Working","OW388"
"2023-09-23 07:00",25.367468290542,"Working","OW388"
"2023-09-23 08:00",25.3405055957867,"Working","OW388"
"2023-09-23 09:00",25.3295429010314,"Working","OW388"
"2023-09-23 10:00",25.3435802062761,"Working","OW388"
"2023-09-23 11:00",25.3296175115207,"Working","OW388"
"2023-09-23 12:00",25.2966548167654,"Working","OW388"
"2023-09-23 13:00",25.2686921220101,"Working","OW388"
"2023-09-23 14:00",25.2457294272548,"Working","OW388"
"2023-09-23 15:00",25.2307667324995,"Working","OW388"
"2023-09-23 16:00",25.2368040377441,"Working","OW388"
"2023-09-23 17:00",25.2768413429888,"Working","OW388"
"2023-09-23 18:00",25.5288786482335,"Working","OW388"
"2023-09-23 19:00",25.5809159534782,"Working","OW388"
"2023-09-23 20:00",25.5059532587228,"Working","OW388"
"2023-09-23 21:00",25.4169905639675,"Working","OW388"
"2023-09-23 22:00",25.3670278692122,"Working","OW388"
"2023-09-23 23:00",25.3260651744569,"Working","OW388"
"2023-09-24 00:00",25.3051024797016,"Working","OW388"
"2023-09-24 01:00",25.2851397849462,"Working","OW388"
"2023-09-24 02:00",25.2701770901909,"Working","OW388"
"2023-09-24 03:00",25.2672143954356,"Working","OW388"
"2023-09-24 04:00",25.2502517006803,"Working","OW388"
"2023-09-24 05:00",25.253289005925,"Working","OW388"
"2023-09-24 06:00",25.2533263111696,"Working","OW388"
"2023-09-24 07:00",25.2323636164143,"Working","OW388"
"2023-09-24 08:00",25.208400921659,"Working","OW388"
"2023-09-24 09:00",25.1874382269037,"Working","OW388"
"2023-09-24 10:00",25.3124755321483,"Working","OW388"
"2023-09-24 11:00",25.666512837393,"Working","OW388"
"2023-09-24 12:00",26.2695501426377,"Working","OW388"
"2023-09-24 13:00",26.4285874478824,"Working","OW388"
"2023-09-24 14:00",26.1636247531271,"Working","OW388"
"2023-09-24 15:00",26.0736620583717,"Working","OW388"
"2023-09-24 16:00",25.8966993636164,"Working","OW388"
"2023-09-24 17:00",25.7537366688611,"Working","OW388"
"2023-09-24 18:00",25.6407739741058,"Working","OW388"
"2023-09-24 19:00",25.5638112793504,"Working","OW388"
"2023-09-24 20:00",25.5178485845951,"Working","OW388"
"2023-09-24 21:00",25.4948858898398,"Working","OW388"
"2023-09-24 22:00",25.4559231950845,"Working","OW388"
"2023-09-24 23:00",25.4149605003292,"Working","OW388"
"2023-09-25 00:00",25.3999978055738,"Working","OW388"
"2023-09-25 01:00",25.3660351108185,"Working","OW388"
"2023-09-25 02:00",25.3530724160632,"Working","OW388"
"2023-09-25 03:00",25.3271097213079,"Working","OW388"
"2023-09-25 04:00",25.3011470265526,"Working","OW388"
"2023-09-25 05:00",25.2801843317972,"Working","OW388"
"2023-09-25 06:00",25.2652216370419,"Working","OW388"
"2023-09-25 07:00",25.2452589422866,"Working","OW388"
"2023-09-25 08:00",25.2262962475313,"Working","OW388"
"2023-09-25 09:00",25.2073335527759,"Working","OW388"
"2023-09-25 10:00",25.1913708580206,"Working","OW388"
"2023-09-25 11:00",25.1734081632653,"Working","OW388"
"2023-09-25 12:00",25.15544546851,"Working","OW388"
"2023-09-25 13:00",25.1414827737547,"Working","OW388"
"2023-09-25 14:00",25.1325200789993,"Working","OW388"
"2023-09-25 15:00",25.125557384244,"Working","OW388"
"2023-09-25 16:00",25.1155946894887,"Working","OW388"
"2023-09-25 17:00",25.1076319947334,"Working","OW388"
"2023-09-25 18:00",25.1186692999781,"Working","OW388"
"2023-09-25 19:00",25.1127066052227,"Working","OW388"
"2023-09-25 20:00",25.1057439104674,"Working","OW388"
"2023-09-25 21:00",25.1067812157121,"Working","OW388"
"2023-09-25 22:00",25.0998185209568,"Working","OW388"
"2023-09-25 23:00",25.0818558262015,"Working","OW388"
"2023-09-26 00:00",25.0658931314461,"Working","OW388"
"2023-09-26 01:00",25.0529304366908,"Working","OW388"
"2023-09-26 02:00",25.0919677419355,"Working","OW388"
"2023-09-26 03:00",25.3060050471802,"Working","OW388"
"2023-09-26 04:00",25.2730423524248,"Working","OW388"
"2023-09-26 05:00",25.2110796576695,"Working","OW388"
"2023-09-26 06:00",25.1591169629142,"Working","OW388"
"2023-09-26 07:00",25.1201542681589,"Working","OW388"
"2023-09-26 08:00",25.0901915734036,"Working","OW388"
"2023-09-26 09:00",25.0652288786482,"Working","OW388"
"2023-09-26 10:00",25.0432661838929,"Working","OW388"
"2023-09-26 11:00",25.1573034891376,"Working","OW388"
"2023-09-26 12:00",25.6543407943823,"Working","OW388"
"2023-09-26 13:00",25.835378099627,"Working","OW388"
"2023-09-26 14:00",25.6194154048716,"Working","OW388"
"2023-09-26 15:00",25.4344527101163,"Working","OW388"
"2023-09-26 16:00",25.314490015361,"Working","OW388"
"2023-09-26 17:00",25.2575273206057,"Working","OW388"
"2023-09-26 18:00",25.2035646258503,"Working","OW388"
"2023-09-26 19:00",25.162601931095,"Working","OW388"
"2023-09-26 20:00",25.1266392363397,"Working","OW388"
"2023-09-26 21:00",25.4056765415844,"Working","OW388"
"2023-09-26 22:00",25.5427138468291,"Working","OW388"
"2023-09-26 23:00",25.4017511520737,"Working","OW388"
"2023-09-27 00:00",25.2807884573184,"Working","OW388"
"2023-09-27 01:00",25.2178257625631,"Working","OW388"
"2023-09-27 02:00",25.1758630678078,"Working","OW388"
"2023-09-27 03:00",25.1479003730524,"Working","OW388"
"2023-09-27 04:00",25.1269376782971,"Working","OW388"
"2023-09-27 05:00",25.1049749835418,"Working","OW388"
"2023-09-27 06:00",25.1100122887865,"Working","OW388"
"2023-09-27 07:00",25.0850495940312,"Working","OW388"
"2023-09-27 08:00",25.0570868992758,"Working","OW388"
"2023-09-27 09:00",25.0331242045205,"Working","OW388"
"2023-09-27 10:00",25.0101615097652,"Working","OW388"
"2023-09-27 11:00",24.9871988150099,"Working","OW388"
"2023-09-27 12:00",24.9702361202546,"Working","OW388"
"2023-09-27 13:00",24.9562734254992,"Working","OW388"
"2023-09-27 14:00",24.9503107307439,"Working","OW388"
"2023-09-27 15:00",24.9473480359886,"Working","OW388"
"2023-09-27 16:00",24.9463853412333,"Working","OW388"
"2023-09-27 17:00",24.9444226464779,"Working","OW388"
"2023-09-27 18:00",24.9394599517226,"Working","OW388"
"2023-09-27 19:00",24.9504972569673,"Working","OW388"
"2023-09-27 20:00",24.936534562212,"Working","OW388"
"2023-09-27 21:00",25.0265718674567,"Working","OW388"
"2023-09-27 22:00",25.1906091727013,"Working","OW388"
"2023-09-27 23:00",25.120646477946,"Working","OW388"
"2023-09-28 00:00",25.0446837831907,"Working","OW388"
"2023-09-28 01:00",25.0047210884354,"Working","OW388"
"2023-09-28 02:00",24.9737583936801,"Working","OW388"
"2023-09-28 03:00",24.9467956989247,"Working","OW388"
"2023-09-28 04:00",24.9288330041694,"Working","OW388"
"2023-09-28 05:00",24.9148703094141,"Working","OW388"
"2023-09-28 06:00",24.9019076146588,"Working","OW388"
"2023-09-28 07:00",24.8889449199034,"Working","OW388"
"2023-09-28 08:00",24.8769822251481,"Working","OW388"
"2023-09-28 09:00",24.8610195303928,"Working","OW388"
"2023-09-28 10:00",24.8970568356375,"Working","OW388"
"2023-09-28 11:00",25.0680941408822,"Working","OW388"
"2023-09-28 12:00",25.5541314461268,"Working","OW388"
"2023-09-28 13:00",25.7261687513715,"Working","OW388"
"2023-09-28 14:00",25.4842060566162,"Working","OW388"
"2023-09-28 15:00",25.2822433618609,"Working","OW388"
"2023-09-28 16:00",25.1662806671055,"Working","OW388"
"2023-09-28 17:00",25.0803179723502,"Working","OW388"
"2023-09-28 18:00",25.0193552775949,"Working","OW388"
"2023-09-28 19:00",24.9783925828396,"Working","OW388"
"2023-09-28 20:00",24.9454298880843,"Working","OW388"
"2023-09-28 21:00",24.9184671933289,"Working","OW388"
"2023-09-28 22:00",24.9085044985736,"Working","OW388"
"2023-09-28 23:00",24.9255418038183,"Working","OW388"
"2023-09-29 00:00",25.154579109063,"Working","OW388"
"2023-09-29 01:00",25.0936164143077,"Working","OW388"
"2023-09-29 02:00",25.0346537195523,"Working","OW388"
"2023-09-29 03:00",24.984691024797,"Working","OW388"
"2023-09-29 04:00",24.9437283300417,"Working","OW388"
"2023-09-29 05:00",24.9267656352864,"Working","OW388"
"2023-09-29 06:00",24.9068029405311,"Working","OW388"
"2023-09-29 07:00",24.8828402457757,"Working","OW388"
"2023-09-29 08:00",24.8608775510204,"Working","OW388"
"2023-09-29 09:00",24.8429148562651,"Working","OW388"
"2023-09-29 10:00",24.8269521615098,"Working","OW388"
"2023-09-29 11:00",24.8099894667544,"Working","OW388"
"2023-09-29 12:00",24.7940267719991,"Working","OW388"
"2023-09-29 13:00",24.7800640772438,"Working","OW388"
"2023-09-29 14:00",24.7731013824885,"Working","OW388"
"2023-09-29 15:00",24.7661386877332,"Working","OW388"
"2023-09-29 16:00",24.7591759929778,"Working","OW388"
"2023-09-29 17:00",24.7652132982225,"Working","OW388"
"2023-09-29 18:00",24.7662506034672,"Working","OW388"
"2023-09-29 19:00",24.9082879087119,"Working","OW388"
"2023-09-29 20:00",24.9993252139565,"Working","OW388"
"2023-09-29 21:00",24.9273625192012,"Working","OW388"
"2023-09-29 22:00",24.8603998244459,"Working","OW388"
"2023-09-29 23:00",24.8134371296906,"Working","OW388"
"2023-09-30 00:00",24.7904744349353,"Working","OW388"
"2023-09-30 01:00",24.7595117401799,"Working","OW388"
"2023-09-30 02:00",24.7385490454246,"Working","OW388"
"2023-09-30 03:00",24.7245863506693,"Working","OW388"
"2023-09-30 04:00",24.713623655914,"Working","OW388"
"2023-09-30 05:00",24.7046609611587,"Working","OW388"
"2023-09-30 06:00",24.7226982664033,"Working","OW388"
"2023-09-30 07:00",24.708735571648,"Working","OW388"
"2023-09-30 08:00",24.6957728768927,"Working","OW388"
"2023-09-30 09:00",24.6848101821374,"Working","OW388"
"2023-09-30 10:00",24.671847487382,"Working","OW388"
"2023-09-30 11:00",24.8518847926267,"Working","OW388"
"2023-09-30 12:00",25.3549220978714,"Working","OW388"
"2023-09-30 13:00",25.5389594031161,"Working","OW388"
"2023-09-30 14:00",25.3079967083608,"Working","OW388"
"2023-09-30 15:00",25.1040340136054,"Working","OW388"
"2023-09-30 16:00",24.9780713188501,"Working","OW388"
"2023-09-30 17:00",24.9001086240948,"Working","OW388"
"2023-09-30 18:00",24.8361459293395,"Working","OW388"
"2023-09-30 19:00",24.7911832345842,"Working","OW388"
"2023-09-30 20:00",24.7572205398288,"Working","OW388"
"2023-09-30 21:00",25.0032578450735,"Working","OW388"
"2023-09-30 22:00",24.9652951503182,"Working","OW388"
"2023-09-30 23:00",24.8783324555629,"Working","OW388"
"2023-10-01 00:00",24.8293697608075,"Working","OW388"
"2023-10-01 01:00",24.7814070660522,"Working","OW388"
"2023-10-01 02:00",24.7404443712969,"Working","OW388"
"2023-10-01 03:00",24.7124816765416,"Working","OW388"
"2023-10-01 04:00",24.7065189817863,"Working","OW388"
"2023-10-01 05:00",24.6875562870309,"Working","OW388"
"2023-10-01 06:00",24.6715935922756,"Working","OW388"
"2023-10-01 07:00",24.6586308975203,"Working","OW388"
"2023-10-01 08:00",24.646668202765,"Working","OW388"
"2023-10-01 09:00",24.6347055080097,"Working","OW388"
"2023-10-01 10:00",24.6217428132543,"Working","OW388"
"2023-10-01 11:00",24.608780118499,"Working","OW388"
"2023-10-01 12:00",24.5938174237437,"Working","OW388"
"2023-10-01 13:00",24.5788547289884,"Working","OW388"
"2023-10-01 14:00",24.567892034233,"Working","OW388"
"2023-10-01 15:00",24.5769293394777,"Working","OW388"
"2023-10-01 16:00",24.5869666447224,"Working","OW388"
"2023-10-01 17:00",24.5720039499671,"Working","OW388"
"2023-10-01 18:00",24.5630412552118,"Working","OW388"
"2023-10-01 19:00",24.5550785604564,"Working","OW388"
"2023-10-01 20:00",24.8071158657011,"Working","OW388"
"2023-10-01 21:00",24.8281531709458,"Working","OW388"
"2023-10-01 22:00",24.7461904761905,"Working","OW388"
"2023-10-01 23:00",24.6842277814352,"Working","OW388"